Weather reports worldwide

Advertisment
Angermünde, Germany (10291): temperature & dewpoint: 10.01.2018 08:00:00 - 16.01.2018 08:00:00 (CET)Angermünde, Germany (10291): temperature 5cm & temperature -5cm: 10.01.2018 08:00:00 - 16.01.2018 08:00:00 (CET)Angermünde, Germany (10291): temperature -20cm & temperature -100cm: 10.01.2018 08:00:00 - 16.01.2018 08:00:00 (CET)Angermünde, Germany (10291): wind speed & gusts: 10.01.2018 08:00:00 - 16.01.2018 08:00:00 (CET)Angermünde, Germany (10291): wind direction: 10.01.2018 08:00:00 - 16.01.2018 08:00:00 (CET)Angermünde, Germany (10291): reduced air pressure: 10.01.2018 08:00:00 - 16.01.2018 08:00:00 (CET)Angermünde, Germany (10291): visibility: 10.01.2018 08:00:00 - 16.01.2018 08:00:00 (CET)Angermünde, Germany (10291): sunshine duration: 10.01.2018 08:00:00 - 16.01.2018 08:00:00 (CET)Angermünde, Germany (10291): precipitation: 10.01.2018 08:00:00 - 16.01.2018 08:00:00 (CET)
Date & Time tt [°C] td [°C] tt 5cm [°C] tt -5cm [°C] tt -20cm [°C] tt -100cm [°C] ff [km/h] ff [kn] fx [km/h] fx [kn] dd ppp [hPa] vv [km] sd [min] rr [mm]
16.01.2018 08:00:00 0,9 0,6 0,0 -0,2 0,4 3,7 18 10 30 16 S 991,3 15 0 0,1
16.01.2018 07:00:00 0,5 0,5 -0,1 -0,2 0,4 3,7 22 12 35 19 S 991,4 3,0 0 0,9
16.01.2018 06:00:00 0,0 0,0 -0,1 -0,3 0,4 3,7 19 10 38 21 S 992,0 0,8 0 1,7
16.01.2018 05:00:00 0,0 -0,5 -0,1 -0,3 0,4 3,7 24 13 44 24 SSE 992,9 0,7 0 0,5
16.01.2018 04:00:00 -0,3 -1,1 -0,5 -0,3 0,4 3,7 29 15 51 28 SSE 994,2 1,7 0 0,1
16.01.2018 03:00:00 -0,4 -1,5 -0,5 -0,3 0,4 3,7 29 16 46 25 SSE 995,8 1,6 0 0,1
16.01.2018 02:00:00 0,1 -3,0 -0,3 -0,4 0,4 3,7 29 16 48 26 SSE 997,3 2,2 0 0,0
16.01.2018 01:00:00 0,4 -3,9 0,0 -0,4 0,4 3,7 28 15 45 24 SSE 999,0 6 0 0,0
16.01.2018 00:00:00 0,3 -4,0 -0,2 -0,4 0,4 3,7 24 13 42 23 SSE 1000,5 16 0 0,0
15.01.2018 23:00:00 0,0 -3,8 -0,6 -0,4 0,4 3,7 25 13 47 25 SSE 1002,2 13 0 0,0
15.01.2018 22:00:00 -0,3 -3,8 -1,1 -0,4 0,4 3,7 23 13 41 22 SSE 1003,8 13 0 0,1
15.01.2018 21:00:00 -0,2 -3,7 -0,5 -0,4 0,4 3,8 26 14 45 24 SSE 1005,8 5 0 0,0
15.01.2018 20:00:00 -0,1 -3,8 -0,5 -0,4 0,4 3,8 26 14 42 23 SSE 1007,1 14 0 0,0
15.01.2018 19:00:00 0,0 -3,8 -0,3 -0,4 0,4 3,8 23 13 42 23 SSE 1008,2 14 0 0,0
15.01.2018 18:00:00 0,3 -3,6 -0,4 -0,4 0,4 3,8 25 14 41 22 SSE 1009,4 16 0 0,0
15.01.2018 17:00:00 0,5 -3,4 -0,5 -0,3 0,4 3,8 22 12 37 20 SSE 1010,9 18 0 0,0
15.01.2018 16:00:00 0,9 -3,1 0,3 -0,3 0,4 3,8 19 11 37 20 SSE 1012,5 14 0 0,0
15.01.2018 15:00:00 0,7 -3,5 0,3 -0,3 0,4 3,8 21 11 37 20 SSE 1013,8 15 58 0,0
15.01.2018 14:00:00 0,6 -3,9 0,7 -0,3 0,4 3,8 22 12 36 19 SSE 1015,0 10 60 0,0
15.01.2018 13:00:00 -0,1 -4,2 0,4 -0,4 0,4 3,8 22 12 37 20 SSE 1016,4 10 60 0,0
15.01.2018 12:00:00 -1,2 -4,8 -0,5 -0,6 0,4 3,8 19 11 34 18 SSE 1018,2 8 60 0,0
15.01.2018 11:00:00 -2,2 -5,3 -1,3 -0,8 0,4 3,8 20 11 38 20 SSE 1019,9 7 60 0,0
15.01.2018 10:00:00 -3,0 -5,7 -3,3 -0,9 0,4 3,8 20 11 37 20 SSE 1020,6 6 53 0,0
15.01.2018 09:00:00 -3,4 -5,7 -3,4 -0,8 0,4 3,8 23 12 34 18 SE 1021,6 6 0 0,0
15.01.2018 08:00:00 -3,5 -5,7 -3,5 -0,8 0,4 3,8 17 9 31 17 SSE 1022,5 6 0 0,0
15.01.2018 07:00:00 -3,8 -6,0 -3,8 -0,9 0,5 3,8 16 8 33 18 SSE 1022,9 6 0 0,0
15.01.2018 06:00:00 -4,1 -6,3 -4,1 -1,0 0,5 3,8 19 10 29 15 SSE 1023,8 7 0 0,0
15.01.2018 05:00:00 -4,3 -6,4 -5,3 -0,9 0,5 3,8 19 10 29 16 SE 1024,5 7 0 0,0
15.01.2018 04:00:00 -3,8 -6,2 -4,8 -0,8 0,5 3,8 16 9 29 15 SE 1025,5 8 0 0,0
15.01.2018 03:00:00 -3,4 -6,0 -4,6 -0,7 0,5 3,8 17 9 27 14 SE 1026,3 9 0 0,0
15.01.2018 02:00:00 -3,5 -6,0 -4,7 -0,6 0,5 3,8 14 7 22 12 SE 1027,0 9 0 0,0
15.01.2018 01:00:00 -3,4 -6,0 -5,0 -0,4 0,5 3,8 13 7 26 14 SE 1027,7 10 0 0,0
15.01.2018 00:00:00 -2,9 -6,0 -4,1 -0,3 0,5 3,8 18 10 31 17 SE 1028,2 11 0 0,0
14.01.2018 23:00:00 -2,7 -6,0 -3,7 -0,3 0,5 3,8 20 11 33 18 SE 1028,8 12 0 0,0
14.01.2018 22:00:00 -2,2 -5,9 -2,8 -0,2 0,6 3,9 19 11 35 19 SE 1028,9 13 0 0,0
14.01.2018 21:00:00 -1,7 -5,6 -2,0 -0,2 0,6 3,9 18 10 27 15 SE 1029,2 13 0 0,0
14.01.2018 20:00:00 -1,7 -5,6 -2,0 -0,2 0,6 3,9 15 8 26 14 SE 1029,5 12 0 0,0
14.01.2018 19:00:00 -1,6 -5,5 -1,9 -0,2 0,6 3,9 14 8 24 13 SE 1029,6 12 0 0,0
14.01.2018 18:00:00 -1,7 -5,7 -1,9 -0,2 0,6 3,9 17 9 28 15 ESE 1029,7 11 0 0,0
14.01.2018 17:00:00 -1,8 -6,2 -2,0 -0,2 0,6 3,9 24 13 33 18 SE 1029,9 12 0 0,0
14.01.2018 16:00:00 -1,6 -5,8 -1,7 -0,1 0,6 3,9 16 9 29 16 ESE 1030,2 11 0 0,0
14.01.2018 15:00:00 -1,5 -6,1 -1,5 -0,1 0,6 3,9 14 8 31 17 SE 1030,3 15 0 0,0
14.01.2018 14:00:00 -1,5 -6,1 -1,3 -0,1 0,6 3,9 19 10 34 19 ESE 1030,5 15 0 0,0
14.01.2018 13:00:00 -1,5 -6,3 -1,2 -0,1 0,6 3,9 19 11 35 19 ESE 1031,0 20 0 0,0
14.01.2018 12:00:00 -1,5 -6,4 -1,2 -0,1 0,6 3,9 18 10 32 18 SE 1031,5 20 0 0,0
14.01.2018 11:00:00 -1,6 -6,1 -1,4 -0,2 0,6 3,9 19 10 29 16 ESE 1031,8 20 0 0,0
14.01.2018 10:00:00 -2,3 -5,8 -2,6 -0,3 0,6 3,9 19 10 26 14 ESE 1031,8 20 0 0,0
14.01.2018 09:00:00 -2,9 -6,0 -4,0 -0,3 0,6 3,9 17 9 24 13 ESE 1031,7 20 0 0,0
14.01.2018 08:00:00 -2,8 -5,8 -4,2 -0,2 0,6 3,9 16 8 26 14 E 1031,7 20 0 0,0
14.01.2018 07:00:00 -2,3 -5,1 -3,8 -0,1 0,6 3,9 17 9 33 18 E 1031,6 20 0 0,0
14.01.2018 06:00:00 -2,0 -5,2 -3,7 -0,1 0,6 3,9 14 7 25 14 E 1031,7 20 0 0,0
14.01.2018 05:00:00 -2,1 -5,1 -3,6 -0,1 0,6 3,9 14 7 20 11 E 1031,8 12 0 0,0
14.01.2018 04:00:00 -1,7 -5,0 -3,5 0,0 0,6 3,9 12 7 23 12 E 1032,1 14 0 0,0
14.01.2018 03:00:00 -1,0 -5,5 -2,5 0,0 0,6 3,9 18 10 37 20 ESE 1031,9 16 0 0,0
14.01.2018 02:00:00 -0,3 -5,3 -0,9 0,0 0,6 3,9 21 12 38 21 ESE 1031,9 16 0 0,0
14.01.2018 01:00:00 -0,2 -5,2 -0,7 0,0 0,6 3,9 22 12 29 16 E 1032,0 18 0 0,0
14.01.2018 00:00:00 -0,3 -5,0 -0,8 0,0 0,6 4,0 16 9 36 19 E 1032,4 17 0 0,0
13.01.2018 23:00:00 -0,3 -5,5 -0,7 -0,1 0,6 4,0 24 13 38 20 ESE 1032,9 16 0 0,0
13.01.2018 22:00:00 -0,3 -5,4 -0,6 -0,1 0,6 4,0 22 12 34 18 ESE 1033,0 18 0 0,0
13.01.2018 21:00:00 -0,3 -5,2 -0,6 -0,1 0,6 4,0 23 13 39 21 ESE 1033,3 17 0 0,0
13.01.2018 20:00:00 -0,3 -4,9 -0,7 -0,1 0,6 4,0 19 10 34 18 SE 1033,5 17 0 0,0
13.01.2018 19:00:00 -0,2 -4,5 -0,6 -0,1 0,6 4,0 19 10 30 16 ESE 1033,5 18 0 0,0
13.01.2018 18:00:00 -0,1 -4,5 -0,5 -0,1 0,6 4,0 17 9 29 16 ESE 1033,3 19 0 0,0
13.01.2018 17:00:00 -0,1 -4,9 -0,5 -0,1 0,6 4,0 18 10 34 19 ESE 1033,3 22 0 0,0
13.01.2018 16:00:00 -0,1 -5,4 -0,5 -0,1 0,6 4,0 23 12 39 21 ESE 1033,2 23 0 0,0
13.01.2018 15:00:00 -0,3 -5,3 -0,5 -0,1 0,6 4,0 19 10 29 16 ESE 1033,2 20 0 0,0
13.01.2018 14:00:00 -0,7 -5,3 -0,7 -0,1 0,6 4,0 21 12 35 19 ESE 1033,8 20 0 0,0
13.01.2018 13:00:00 -1,0 -5,2 -1,0 -0,1 0,5 4,0 24 13 39 21 ESE 1034,2 20 0 0,0
13.01.2018 12:00:00 -0,9 -4,9 -0,9 -0,1 0,5 4,0 20 11 41 22 SE 1034,5 20 0 0,0
13.01.2018 11:00:00 -0,7 -4,1 -0,6 -0,1 0,5 4,0 18 10 32 18 ESE 1034,6 20 0 0,0
13.01.2018 10:00:00 -1,4 -4,2 -1,8 -0,1 0,5 4,0 24 13 38 21 ESE 1034,6 15 29 0,0
13.01.2018 09:00:00 -1,0 -3,4 -1,3 -0,1 0,5 4,0 23 12 33 18 E 1034,2 9 0 0,0
13.01.2018 08:00:00 -0,5 -2,7 -0,8 -0,1 0,5 4,1 18 10 28 15 ESE 1034,0 7 0 0,0
13.01.2018 07:00:00 -0,3 -2,3 -0,5 -0,1 0,5 4,1 16 9 25 14 E 1033,9 5 0 0,0
13.01.2018 06:00:00 -0,4 -1,9 -0,6 -0,1 0,5 4,1 14 8 24 13 E 1033,8 4,0 0 0,0
13.01.2018 05:00:00 -0,5 -1,9 -0,6 -0,1 0,5 4,1 14 8 25 14 E 1033,9 4,9 0 0,0
13.01.2018 04:00:00 -0,5 -1,8 -0,7 -0,1 0,5 4,1 14 7 25 14 E 1033,8 5 0 0,0
13.01.2018 03:00:00 -0,5 -1,9 -0,7 -0,1 0,5 4,1 16 9 28 15 ESE 1033,8 4,8 0 0,0
13.01.2018 02:00:00 -0,4 -1,7 -0,7 -0,1 0,5 4,1 17 9 26 14 ESE 1033,6 4,8 0 0,0
13.01.2018 01:00:00 -0,5 -1,0 -0,6 -0,1 0,5 4,1 9 5 22 12 E 1033,4 2,2 0 0,0
13.01.2018 00:00:00 -0,4 -0,8 -0,4 -0,1 0,5 4,1 13 7 24 13 E 1033,5 1,6 0 0,0
12.01.2018 23:00:00 0,0 -1,3 -0,2 -0,1 0,5 4,1 14 8 26 14 ESE 1033,5 4,5 0 0,0
12.01.2018 22:00:00 -0,1 -0,8 -0,3 -0,1 0,5 4,1 17 9 24 13 ESE 1033,2 3,0 0 0,0
12.01.2018 21:00:00 0,2 -0,8 0,0 -0,1 0,5 4,1 13 7 23 13 E 1033,0 4,1 0 0,0
12.01.2018 20:00:00 0,1 -0,7 0,0 -0,1 0,5 4,1 17 9 23 13 E 1032,4 3,2 0 0,0
12.01.2018 19:00:00 0,2 -0,2 0,0 -0,1 0,5 4,1 15 8 23 13 E 1031,9 2,2 0 0,0
12.01.2018 18:00:00 0,3 0,0 0,1 -0,1 0,5 4,2 16 9 26 14 E 1031,6 1,9 0 0,0
12.01.2018 17:00:00 0,5 0,0 0,3 -0,1 0,4 4,2 17 9 26 14 E 1031,3 3,0 0 0,0
12.01.2018 16:00:00 0,7 0,0 0,4 0,0 0,4 4,2 16 9 24 13 E 1030,9 3,5 0 0,0
12.01.2018 15:00:00 0,8 0,2 0,7 0,0 0,4 4,2 16 9 24 13 E 1030,4 4,0 0 0,0
12.01.2018 14:00:00 0,9 -0,1 0,7 0,0 0,4 4,2 16 9 23 13 E 1030,1 4,0 0 0,0
12.01.2018 13:00:00 1,0 0,0 0,8 0,0 0,4 4,2 14 8 19 11 E 1030,0 5 0 0,0
12.01.2018 12:00:00 1,0 0,0 0,8 -0,1 0,4 4,2 12 7 19 10 E 1029,9 6 0 0,0
12.01.2018 11:00:00 0,9 0,2 0,7 -0,1 0,4 4,2 13 7 20 11 E 1029,2 3,5 0 0,0
12.01.2018 10:00:00 0,6 0,4 0,5 -0,1 0,4 4,2 12 7 21 12 ENE 1029,2 2,5 0 0,0
12.01.2018 09:00:00 0,5 0,2 0,3 -0,1 0,4 4,2 12 7 18 10 ENE 1028,6 2,0 0 0,0
12.01.2018 08:00:00 0,5 0,2 0,3 -0,1 0,4 4,2 11 6 19 11 E 1027,9 3,0 0 -
12.01.2018 07:00:00 0,6 0,1 0,3 -0,1 0,4 4,2 14 8 20 11 ENE 1027,3 4,0 0 0,0
12.01.2018 06:00:00 0,7 0,4 0,4 -0,1 0,4 4,2 13 7 19 10 E 1026,8 3,0 0 0,0
12.01.2018 05:00:00 0,6 0,3 0,3 -0,1 0,4 4,3 11 6 17 9 E 1026,4 2,5 0 0,0
12.01.2018 04:00:00 0,7 0,5 0,4 -0,1 0,4 4,3 13 7 20 11 E 1026,0 2,1 0 0,0
12.01.2018 03:00:00 0,7 0,5 0,5 -0,1 0,4 4,3 14 8 19 10 E 1025,3 2,2 0 0,0
12.01.2018 02:00:00 0,8 0,7 0,6 -0,1 0,4 4,3 12 7 17 9 E 1024,8 1,5 0 0,0
12.01.2018 01:00:00 0,7 0,7 0,6 -0,1 0,4 4,3 13 7 17 9 E 1024,4 0,7 0 0,0
12.01.2018 00:00:00 0,7 0,7 0,6 -0,1 0,4 4,3 9 5 15 8 E 1023,7 0,2 0 0,0
11.01.2018 23:00:00 0,8 0,8 0,6 -0,1 0,4 4,3 13 7 18 10 E 1023,4 0,5 0 0,0
11.01.2018 22:00:00 0,8 0,8 0,7 -0,1 0,4 4,3 11 6 18 10 E 1022,8 0,4 0 0,0
11.01.2018 21:00:00 0,9 0,9 0,7 -0,1 0,4 4,3 13 7 18 10 E 1022,1 0,3 0 0,0
11.01.2018 20:00:00 0,8 0,8 0,6 -0,1 0,4 4,3 7 4 13 7 ENE 1021,3 0,2 0 0,0
11.01.2018 19:00:00 0,8 0,8 0,6 -0,1 0,4 4,3 10 6 14 8 E 1020,7 0,3 0 0,0
11.01.2018 18:00:00 0,8 0,8 0,6 -0,1 0,4 4,4 10 6 16 8 E 1020,2 0,7 0 0,0
11.01.2018 17:00:00 0,8 0,8 0,6 -0,1 0,4 4,4 11 6 13 7 E 1019,7 0,4 0 0,0
11.01.2018 16:00:00 0,9 0,9 0,8 -0,1 0,4 4,4 10 5 16 9 E 1018,8 0,5 0 0,0
11.01.2018 15:00:00 0,9 0,8 0,9 -0,1 0,4 4,4 11 6 16 9 E 1018,3 0,8 0 0,0
11.01.2018 14:00:00 1,1 0,9 1,1 -0,1 0,4 4,4 8 4 12 7 ENE 1017,4 2,0 0 0,0
11.01.2018 13:00:00 1,1 0,9 1,0 -0,1 0,4 4,4 8 5 13 7 E 1017,1 3,4 0 0,0
11.01.2018 12:00:00 1,2 1,0 1,1 -0,1 0,4 4,4 8 4 13 7 E 1016,9 4,0 0 0,1
11.01.2018 11:00:00 1,3 1,1 1,1 -0,1 0,4 4,4 9 5 13 7 E 1017,0 3,5 0 1,0
11.01.2018 10:00:00 1,3 1,3 1,3 -0,1 0,4 4,4 4 2 10 5 ENE 1016,4 0,9 0 1,1
11.01.2018 09:00:00 1,0 1,0 0,8 -0,1 0,4 4,4 7 4 11 6 NE 1015,9 0,8 0 1,0
11.01.2018 08:00:00 1,0 0,9 0,7 -0,1 0,4 4,5 8 4 10 6 NNE 1015,4 0,7 0 1,2
11.01.2018 07:00:00 0,9 0,9 0,7 -0,1 0,4 4,5 4 2 9 5 NNE 1015,2 0,7 0 1,7
11.01.2018 06:00:00 0,9 0,9 0,7 -0,1 0,4 4,5 5 3 8 4 NNW 1015,0 0,4 0 1,1
11.01.2018 05:00:00 0,9 0,8 0,6 -0,1 0,4 4,5 4 2 6 3 N 1014,9 0,2 0 0,3
11.01.2018 04:00:00 0,9 0,8 0,6 -0,1 0,4 4,5 4 2 8 4 NNE 1014,8 0,3 0 0,3
11.01.2018 03:00:00 0,9 0,8 0,6 -0,1 0,4 4,5 6 3 8 4 NNE 1014,6 1,1 0 0,1
11.01.2018 02:00:00 1,0 0,6 0,7 -0,1 0,4 4,5 4 2 6 3 N 1014,5 1,6 0 0,0
11.01.2018 01:00:00 0,8 0,5 0,4 -0,1 0,4 4,5 0 0 6 4 N 1014,5 1,5 0 0,0
11.01.2018 00:00:00 0,9 0,8 0,4 -0,1 0,4 4,5 2 1 8 5 ENE 1014,7 1,9 0 0,0
10.01.2018 23:00:00 0,9 0,6 0,5 -0,1 0,4 4,5 7 4 10 5 E 1014,6 1,6 0 0,0
10.01.2018 22:00:00 1,3 1,1 0,6 -0,1 0,4 4,6 2 1 5 3 NW 1014,4 1,6 0 0,0
10.01.2018 21:00:00 1,3 1,1 0,7 -0,1 0,4 4,6 3 2 8 5 E 1014,2 1,7 0 0,0
10.01.2018 20:00:00 1,8 1,5 1,2 -0,1 0,4 4,6 3 2 13 7 SE 1014,3 2,3 0 0,0
10.01.2018 19:00:00 1,6 1,5 1,2 -0,1 0,4 4,6 9 5 13 7 E 1014,2 1,9 0 0,0
10.01.2018 18:00:00 1,7 1,6 1,4 -0,1 0,4 4,6 9 5 11 6 ENE 1013,7 1,1 0 0,0
10.01.2018 17:00:00 2,7 2,4 2,0 -0,1 0,4 4,6 4 2 10 5 SE 1013,8 1,9 0 0,0
10.01.2018 16:00:00 2,9 2,6 2,3 -0,1 0,4 4,6 4 2 11 6 SSE 1013,8 2,5 0 0,0
10.01.2018 15:00:00 3,0 2,7 2,8 -0,1 0,4 4,6 8 5 13 7 SE 1013,5 1,8 0 0,0
10.01.2018 14:00:00 2,8 2,3 2,6 -0,1 0,4 4,7 8 4 11 6 ESE 1013,8 1,8 0 0,0
10.01.2018 13:00:00 2,4 2,1 2,4 -0,1 0,4 4,7 4 2 9 5 ESE 1013,9 2,0 0 0,0
10.01.2018 12:00:00 2,2 2,0 2,0 -0,1 0,4 4,7 9 5 15 8 SE 1014,1 2,5 0 0,0
10.01.2018 11:00:00 1,7 1,4 1,3 -0,1 0,4 4,7 8 4 14 7 SSE 1014,2 2,5 0 0,0
10.01.2018 10:00:00 0,6 0,4 0,0 -0,1 0,4 4,7 9 5 12 7 S 1014,5 2,5 0 0,0
10.01.2018 09:00:00 0,5 0,3 -0,3 -0,1 0,4 4,7 9 5 14 7 SSE 1014,4 2,5 0 0,0
10.01.2018 08:00:00 0,8 0,6 -0,2 -0,1 0,4 4,7 7 4 14 8 SSE 1014,1 4,0 0 0,0

tt = temperature
td = dewpoint
tt 5cm = temperature 5cm
tt -5cm = temperature -5cm
tt -20cm = temperature -20cm
tt -100cm = temperature -100cm
ff = wind speed
fx = gusts
dd = wind direction
ppp = reduced air pressure
vv = visibility
sd = sunshine duration
rr = precipitation

Next stations